View from above orbital plane
|
View from above satellite
|
Ground track
|
The orbit data is extracted from the following two-line orbital elements,
1 23711U 95059B 21055.80940920 -.00000005 00000-0 76954-4 0 9998
2 23711 100.6285 65.2687 0368195 155.0390 16.3730 13.12724094212566
Epoch (UTC): | 24 February 2021 19:25:32 |
Eccentricity: | 0.0368195 |
inclination: | 100.6285° |
perigee height: | 933 km |
apogee height: | 1492 km |
right ascension of ascending node: | 65.2687° |
argument of perigee: | 155.0390° |
revolutions per day: | 13.12724094 |
mean anomaly at epoch: | 16.3730° |
orbit number at epoch: | 21256 |
The dashed part of the orbit path shows where the satellite is in the earth's shadow,
|
|